Owensboro, KY

6:50 AM CST on November 13, 2019 (GMT -0600)
Owensboro-Daviess County

Weather History for KOWB - October, 2019

Change the Weather History Date:

Sunday, October 13, 2019

  Actual Average Record
Temperature  
Mean Temperature 54 °F -  
Max Temperature 70 °F 74 °F 89 °F (1989)
Min Temperature 37 °F 47 °F 28 °F (1980)
Degree Days  
Heating Degree Days 12    
Growing Degree Days 4 (Base 50)    
Moisture  
Dew Point 38 °F    
Average Humidity 63    
Maximum Humidity 93    
Minimum Humidity 31    
Precipitation  
Precipitation 0.00 in - - ()
Sea Level Pressure  
Sea Level Pressure 30.03 in    
Wind  
Wind Speed 4 mph (SSW)    
Max Wind Speed 10 mph    
Max Gust Speed 16 mph    
Visibility 10 miles    
Events      
Averages and records for this station are not official NWS values.
T = Trace of Precipitation, MM = Missing Value Source: NWS Daily Summary

Daily Weather History Graph

Daily Weather History Graph

Search for Another Location

Airport or City:

Astronomy

Oct. 13, 2019 Rise Set
Actual Time 6:54 AM CDT 6:14 PM CDT
Civil Twilight 6:28 AM CDT 6:40 PM CDT
Nautical Twilight 5:58 AM CDT 7:11 PM CDT
Astronomical Twilight 5:27 AM CDT 7:41 PM CDT
Moon 6:35 PM CDT 6:30 AM CDT
Length of Visible Light 12h 12m
Length of Day
11h 19m
Full, 100% of the Moon is Illuminated
Oct 13
Full
Oct 13
Full
Oct 21
Last Quarter
Oct 27
New
Nov 4
First Quarter

Hourly Weather History & Observations

Time (CDT) Temp. Windchill Dew Point Humidity Pressure Visibility Wind Dir Wind Speed Gust Speed Precip Events Conditions
12:56 AM 39.9 °F 37.8 °F 35.1 °F 83% 30.06 in 10.0 mi SSE 3.5 mph - N/A   Clear
1:56 AM 39.0 °F - 35.1 °F 86% 30.07 in 10.0 mi Calm Calm - N/A   Clear
2:56 AM 37.9 °F - 35.1 °F 89% 30.06 in 10.0 mi Calm Calm - N/A   Clear
3:56 AM 37.9 °F - 36.0 °F 93% 30.06 in 10.0 mi Calm Calm - N/A   Clear
4:56 AM 37.9 °F - 35.1 °F 89% 30.05 in 10.0 mi Calm Calm - N/A   Clear
5:56 AM 37.9 °F - 35.1 °F 89% 30.06 in 10.0 mi Calm Calm - N/A   Clear
6:56 AM 37.0 °F 32.4 °F 35.1 °F 93% 30.07 in 10.0 mi South 5.8 mph - N/A   Clear
7:56 AM 41.0 °F 39.0 °F 37.9 °F 89% 30.06 in 10.0 mi SSE 3.5 mph - N/A   Clear
8:56 AM 48.0 °F - 41.0 °F 77% 30.08 in 10.0 mi South 6.9 mph - N/A   Clear
9:56 AM 55.9 °F - 39.9 °F 55% 30.07 in 10.0 mi SSW 9.2 mph - N/A   Clear
10:56 AM 60.1 °F - 41.0 °F 49% 30.05 in 10.0 mi SW 8.1 mph - N/A   Clear
11:56 AM 63.0 °F - 39.9 °F 43% 30.04 in 10.0 mi WSW 8.1 mph - N/A   Clear
12:56 PM 66.9 °F - 37.0 °F 33% 30.01 in 10.0 mi SSW 6.9 mph - N/A   Clear
1:56 PM 68.0 °F - 36.0 °F 31% 29.99 in 10.0 mi WSW 10.4 mph - N/A   Clear
2:56 PM 69.1 °F - 37.0 °F 31% 29.97 in 10.0 mi WSW 6.9 mph 16.1 mph N/A   Clear
3:56 PM 70.0 °F - 37.9 °F 31% 29.96 in 10.0 mi North - - N/A   Clear
4:56 PM 69.1 °F - 37.9 °F 32% 29.96 in 10.0 mi WSW 8.1 mph - N/A   Clear
5:56 PM 64.0 °F - 37.0 °F 37% 29.97 in 10.0 mi WSW 8.1 mph - N/A   Clear
6:56 PM 55.0 °F - 37.9 °F 53% 29.98 in 10.0 mi SSW 8.1 mph - N/A   Clear
7:56 PM 52.0 °F - 39.0 °F 61% 30.00 in 10.0 mi SSW 4.6 mph - N/A   Clear
8:56 PM 53.1 °F - 39.0 °F 59% 30.02 in 10.0 mi WSW 4.6 mph - N/A   Clear
9:56 PM 50.0 °F - 39.0 °F 66% 30.02 in 10.0 mi South 4.6 mph - N/A   Clear
10:56 PM 48.0 °F - 39.0 °F 71% 30.03 in 10.0 mi SSW 4.6 mph - N/A   Clear
11:56 PM 48.9 °F - 39.0 °F 69% 30.03 in 10.0 mi South 4.6 mph - N/A   Clear